| time (UTC) | temp F | wind direction | speed MPH | gust MPH | rain 1hr in | rain 24hr in | rain mn in | humidity % | barometer mb |
| 20260902182017 | 71 | 98 | 2.0 | 10.0 | 0.00 | 0.00 | 0.00 | 41 | 1018.3 |
| 20260902181517 | 71 | 156 | 4.0 | 10.0 | 0.00 | 0.00 | 0.00 | 41 | 1018.1 |
| 20260902181015 | 70 | 235 | 1.0 | 10.0 | 0.00 | 0.00 | 0.00 | 42 | 1018.3 |
| 20260902180515 | 70 | 269 | 4.0 | 9.0 | 0.00 | 0.00 | 0.00 | 42 | 1018.4 |
| 20260902180015 | 70 | 181 | 3.0 | 6.0 | 0.00 | 0.00 | 0.00 | 43 | 1018.5 |
| 20260902175513 | 69 | 275 | 1.0 | 8.0 | 0.00 | 0.00 | 0.00 | 44 | 1018.3 |
| 20260902175012 | 70 | 185 | 3.0 | 7.0 | 0.00 | 0.00 | 0.00 | 42 | 1018.3 |
| 20260902174511 | 70 | 177 | 2.0 | 6.0 | 0.00 | 0.00 | 0.00 | 42 | 1018.4 |
| 20260902174011 | 70 | 210 | 2.0 | 4.0 | 0.00 | 0.00 | 0.00 | 43 | 1018.4 |
| 20260902173509 | 69 | 261 | 0.0 | 3.0 | 0.00 | 0.00 | 0.00 | 44 | 1018.3 |
| 20260902173009 | 69 | 273 | 0.0 | 5.0 | 0.00 | 0.00 | 0.00 | 44 | 1018.3 |
| 20260902172508 | 69 | 252 | 1.0 | 5.0 | 0.00 | 0.00 | 0.00 | 44 | 1018.3 |
| 20260902172007 | 68 | 183 | 1.0 | 5.0 | 0.00 | 0.00 | 0.00 | 44 | 1018.4 |
| 20260902171506 | 68 | 152 | 1.0 | 9.0 | 0.00 | 0.00 | 0.00 | 45 | 1018.3 |
| 20260902171009 | 68 | 198 | 4.0 | 9.0 | 0.00 | 0.00 | 0.00 | 45 | 1018.4 |
| 20260902170505 | 69 | 201 | 1.0 | 7.0 | 0.00 | 0.00 | 0.00 | 44 | 1018.3 |
| 20260902170004 | 69 | 30 | 1.0 | 4.0 | 0.00 | 0.00 | 0.00 | 42 | 1018.3 |
| 20260902165502 | 68 | 69 | 0.0 | 4.0 | 0.00 | 0.00 | 0.00 | 42 | 1018.3 |
| 20260902165002 | 68 | 79 | 2.0 | 6.0 | 0.00 | 0.00 | 0.00 | 42 | 1018.4 |
| 20260902164600 | 68 | 94 | 3.0 | 6.0 | 0.00 | 0.00 | 0.00 | 42 | 1018.3 |
| 20260902164059 | 67 | 37 | 1.0 | 6.0 | 0.00 | 0.00 | 0.00 | 43 | 1018.3 |
| 20260902163558 | 67 | 71 | 2.0 | 6.0 | 0.00 | 0.00 | 0.00 | 43 | 1018.3 |
| 20260902163123 | 66 | 53 | 2.0 | 5.0 | 0.00 | 0.00 | 0.00 | 43 | 1018.3 |
| 20260902162600 | 66 | 43 | 1.0 | 4.0 | 0.00 | 0.00 | 0.00 | 42 | 1018.2 |
| 20260902162055 | 66 | 13 | 1.0 | 6.0 | 0.00 | 0.00 | 0.00 | 44 | 1018.2 |
| 20260902161556 | 66 | 30 | 1.0 | 6.0 | 0.00 | 0.00 | 0.00 | 44 | 1018.1 |
| 20260902161053 | 65 | 104 | 2.0 | 9.0 | 0.00 | 0.00 | 0.00 | 45 | 1018.2 |
| 20260902160551 | 65 | 65 | 3.0 | 7.0 | 0.00 | 0.00 | 0.00 | 46 | 1018.1 |
| 20260902160050 | 64 | 40 | 2.0 | 6.0 | 0.00 | 0.00 | 0.00 | 47 | 1018.1 |
| 20260902155548 | 63 | 84 | 1.0 | 6.0 | 0.00 | 0.00 | 0.00 | 48 | 1018.2 |
| 20260902155047 | 63 | 81 | 2.0 | 6.0 | 0.00 | 0.00 | 0.00 | 49 | 1018.2 |
| 20260902154546 | 62 | 101 | 2.0 | 7.0 | 0.00 | 0.00 | 0.00 | 49 | 1018.1 |
| 20260902154044 | 62 | 99 | 2.0 | 6.0 | 0.00 | 0.00 | 0.00 | 50 | 1018.1 |
| 20260902153544 | 62 | 111 | 2.0 | 6.0 | 0.00 | 0.00 | 0.00 | 50 | 1018.2 |
| 20260902153043 | 61 | 86 | 2.0 | 6.0 | 0.00 | 0.00 | 0.00 | 50 | 1018.2 |
| 20260902152542 | 61 | 83 | 1.0 | 4.0 | 0.00 | 0.00 | 0.00 | 51 | 1018.2 |
| 20260902152039 | 60 | 83 | 1.0 | 4.0 | 0.00 | 0.00 | 0.00 | 52 | 1018.2 |
| 20260902151543 | 59 | 80 | 0.0 | 3.0 | 0.00 | 0.00 | 0.00 | 53 | 1018.3 |
| 20260902151037 | 59 | 80 | 0.0 | 3.0 | 0.00 | 0.00 | 0.00 | 53 | 1018.2 |
| 20260902150536 | 59 | 80 | 0.0 | 2.0 | 0.00 | 0.00 | 0.00 | 53 | 1018.3 |
| 20260902150036 | 59 | 78 | 0.0 | 2.0 | 0.00 | 0.00 | 0.00 | 53 | 1018.1 |
| 20260902145536 | 58 | 78 | 0.0 | 3.0 | 0.00 | 0.00 | 0.00 | 53 | 1018.2 |
| 20260902145034 | 58 | 79 | 1.0 | 4.0 | 0.00 | 0.00 | 0.00 | 54 | 1018.1 |
| 20260902144538 | 57 | 78 | 1.0 | 6.0 | 0.00 | 0.00 | 0.00 | 54 | 1018.1 |
| 20260902144031 | 57 | 82 | 2.0 | 6.0 | 0.00 | 0.00 | 0.00 | 55 | 1018.0 |
| 20260902143529 | 56 | 65 | 1.0 | 5.0 | 0.00 | 0.00 | 0.00 | 56 | 1017.9 |
| 20260902143029 | 56 | 64 | 3.0 | 5.0 | 0.00 | 0.00 | 0.00 | 57 | 1017.7 |
| 20260902142526 | 55 | 74 | 2.0 | 5.0 | 0.00 | 0.00 | 0.00 | 57 | 1017.6 |
| 20260902142027 | 55 | 81 | 2.0 | 5.0 | 0.00 | 0.00 | 0.00 | 58 | 1017.5 |
| 20260902141524 | 54 | 85 | 2.0 | 4.0 | 0.00 | 0.00 | 0.00 | 59 | 1017.3 |
| 20260902141026 | 54 | 85 | 2.0 | 4.0 | 0.00 | 0.00 | 0.00 | 60 | 1017.3 |
| 20260902140522 | 53 | 89 | 2.0 | 4.0 | 0.00 | 0.00 | 0.00 | 60 | 1017.3 |
| 20260902140021 | 53 | 86 | 1.0 | 4.0 | 0.00 | 0.00 | 0.00 | 60 | 1017.4 |
| 20260902135519 | 53 | 76 | 2.0 | 4.0 | 0.00 | 0.00 | 0.00 | 60 | 1017.2 |
| 20260902135017 | 53 | 75 | 2.0 | 4.0 | 0.00 | 0.00 | 0.00 | 60 | 1017.1 |
| 20260902134517 | 53 | 75 | 3.0 | 4.0 | 0.00 | 0.00 | 0.00 | 60 | 1017.0 |
| 20260902134020 | 53 | 80 | 2.0 | 4.0 | 0.00 | 0.00 | 0.00 | 59 | 1016.9 |
| 20260902133515 | 54 | 80 | 2.0 | 4.0 | 0.00 | 0.00 | 0.00 | 59 | 1016.9 |
| 20260902133016 | 54 | 92 | 3.0 | 6.0 | 0.00 | 0.00 | 0.00 | 59 | 1016.8 |
| 20260902132517 | 54 | 83 | 2.0 | 6.0 | 0.00 | 0.00 | 0.00 | 59 | 1016.7 |
| 20260902132014 | 54 | 90 | 2.0 | 6.0 | 0.00 | 0.00 | 0.00 | 60 | 1016.7 |
| 20260902131514 | 54 | 88 | 2.0 | 5.0 | 0.00 | 0.00 | 0.00 | 61 | 1016.8 |
| 20260902131014 | 53 | 81 | 3.0 | 5.0 | 0.00 | 0.00 | 0.00 | 61 | 1016.7 |
| 20260902130514 | 53 | 77 | 3.0 | 8.0 | 0.00 | 0.00 | 0.00 | 61 | 1016.7 |
| 20260902130013 | 53 | 77 | 3.0 | 6.0 | 0.00 | 0.00 | 0.00 | 62 | 1016.7 |
| 20260902125515 | 53 | 81 | 2.0 | 6.0 | 0.00 | 0.00 | 0.00 | 62 | 1016.7 |
| 20260902125013 | 53 | 61 | 2.0 | 8.0 | 0.00 | 0.00 | 0.00 | 62 | 1016.8 |
| 20260902124512 | 53 | 74 | 4.0 | 8.0 | 0.00 | 0.00 | 0.00 | 62 | 1016.7 |
| 20260902124011 | 53 | 80 | 3.0 | 5.0 | 0.00 | 0.00 | 0.00 | 62 | 1016.7 |
| 20260902123511 | 53 | 76 | 3.0 | 5.0 | 0.00 | 0.00 | 0.00 | 62 | 1016.6 |
| 20260902123011 | 53 | 74 | 2.0 | 5.0 | 0.00 | 0.00 | 0.00 | 62 | 1016.7 |
| 20260902122511 | 53 | 76 | 2.0 | 5.0 | 0.00 | 0.00 | 0.00 | 62 | 1016.7 |
| 20260902122010 | 53 | 78 | 2.0 | 4.0 | 0.00 | 0.00 | 0.00 | 62 | 1016.7 |
| 20260902121511 | 53 | 86 | 1.0 | 4.0 | 0.00 | 0.00 | 0.00 | 62 | 1016.6 |
| 20260902121011 | 53 | 77 | 2.0 | 4.0 | 0.00 | 0.00 | 0.00 | 63 | 1016.6 |
| 20260902120510 | 53 | 71 | 3.0 | 7.0 | 0.00 | 0.00 | 0.00 | 63 | 1016.6 |
| 20260902120010 | 53 | 105 | 3.0 | 7.0 | 0.00 | 0.00 | 0.00 | 63 | 1016.6 |
| 20260902115509 | 53 | 94 | 3.0 | 6.0 | 0.00 | 0.00 | 0.00 | 63 | 1016.6 |
| 20260902115009 | 53 | 75 | 2.0 | 5.0 | 0.00 | 0.00 | 0.00 | 63 | 1016.7 |
| 20260902114513 | 54 | 80 | 2.0 | 4.0 | 0.00 | 0.00 | 0.00 | 63 | 1016.8 |
| 20260902114010 | 54 | 85 | 2.0 | 4.0 | 0.00 | 0.00 | 0.00 | 62 | 1016.9 |
| 20260902113508 | 54 | 86 | 2.0 | 4.0 | 0.00 | 0.00 | 0.00 | 62 | 1016.8 |
| 20260902113013 | 54 | 87 | 1.0 | 4.0 | 0.00 | 0.00 | 0.00 | 62 | 1016.8 |
| 20260902112508 | 54 | 70 | 2.0 | 4.0 | 0.00 | 0.00 | 0.00 | 63 | 1016.7 |
| 20260902112011 | 54 | 68 | 1.0 | 4.0 | 0.00 | 0.00 | 0.00 | 62 | 1016.8 |
| 20260902111508 | 54 | 69 | 2.0 | 5.0 | 0.00 | 0.00 | 0.00 | 62 | 1016.9 |
| 20260902111008 | 54 | 79 | 2.0 | 4.0 | 0.00 | 0.00 | 0.00 | 62 | 1016.8 |
| 20260902110508 | 54 | 81 | 2.0 | 4.0 | 0.00 | 0.00 | 0.00 | 62 | 1016.9 |
| 20260902110016 | 54 | 76 | 2.0 | 4.0 | 0.00 | 0.00 | 0.00 | 62 | 1016.8 |
| 20260902105507 | 55 | 117 | 1.0 | 3.0 | 0.00 | 0.00 | 0.00 | 62 | 1016.9 |
| 20260902105007 | 55 | 115 | 1.0 | 3.0 | 0.00 | 0.00 | 0.00 | 62 | 1016.9 |
| 20260902104507 | 55 | 99 | 0.0 | 3.0 | 0.00 | 0.00 | 0.00 | 62 | 1016.9 |
| 20260902104006 | 55 | 98 | 1.0 | 3.0 | 0.00 | 0.00 | 0.00 | 62 | 1016.9 |
| 20260902103506 | 55 | 98 | 1.0 | 4.0 | 0.00 | 0.00 | 0.00 | 62 | 1016.9 |
| 20260902103005 | 55 | 84 | 2.0 | 6.0 | 0.00 | 0.00 | 0.00 | 62 | 1016.8 |
| 20260902102509 | 55 | 98 | 2.0 | 6.0 | 0.00 | 0.00 | 0.00 | 62 | 1016.7 |
| 20260902102005 | 55 | 93 | 2.0 | 6.0 | 0.00 | 0.00 | 0.00 | 63 | 1016.7 |
| 20260902101505 | 55 | 86 | 2.0 | 6.0 | 0.00 | 0.00 | 0.00 | 63 | 1016.7 |
| 20260902101004 | 55 | 105 | 2.0 | 6.0 | 0.00 | 0.00 | 0.00 | 63 | 1016.7 |
| 20260902100504 | 55 | 89 | 3.0 | 5.0 | 0.00 | 0.00 | 0.00 | 63 | 1016.8 |
| 20260902100004 | 55 | 76 | 3.0 | 6.0 | 0.00 | 0.00 | 0.00 | 63 | 1016.6 |
| 20260902095503 | 55 | 92 | 3.0 | 6.0 | 0.00 | 0.00 | 0.00 | 63 | 1016.6 |
| 20260902095001 | 55 | 85 | 3.0 | 6.0 | 0.00 | 0.00 | 0.00 | 64 | 1016.7 |
| 20260902094600 | 54 | 96 | 3.0 | 5.0 | 0.00 | 0.00 | 0.00 | 64 | 1016.7 |
| 20260902094100 | 54 | 97 | 2.0 | 6.0 | 0.00 | 0.00 | 0.00 | 65 | 1016.8 |
| 20260902093600 | 54 | 85 | 2.0 | 6.0 | 0.00 | 0.00 | 0.00 | 65 | 1016.8 |
| 20260902093059 | 54 | 86 | 3.0 | 4.0 | 0.00 | 0.00 | 0.00 | 65 | 1016.8 |
| 20260902092556 | 54 | 82 | 2.0 | 4.0 | 0.00 | 0.00 | 0.00 | 66 | 1016.8 |
| 20260902092057 | 53 | 96 | 2.0 | 4.0 | 0.00 | 0.00 | 0.00 | 67 | 1016.8 |
| 20260902091556 | 53 | 102 | 2.0 | 4.0 | 0.00 | 0.00 | 0.00 | 67 | 1016.7 |
| 20260902091054 | 53 | 105 | 1.0 | 4.0 | 0.00 | 0.00 | 0.00 | 68 | 1016.7 |
| 20260902090556 | 53 | 115 | 0.0 | 3.0 | 0.00 | 0.00 | 0.00 | 68 | 1016.7 |
| 20260902090053 | 53 | 114 | 0.0 | 4.0 | 0.00 | 0.00 | 0.00 | 68 | 1016.7 |
| 20260902085553 | 53 | 113 | 1.0 | 4.0 | 0.00 | 0.00 | 0.00 | 69 | 1016.7 |
| 20260902085052 | 53 | 104 | 0.0 | 4.0 | 0.00 | 0.00 | 0.00 | 69 | 1016.7 |
| 20260902084553 | 53 | 88 | 1.0 | 3.0 | 0.00 | 0.00 | 0.00 | 70 | 1016.7 |
| 20260902084052 | 53 | 88 | 1.0 | 4.0 | 0.00 | 0.00 | 0.00 | 70 | 1016.8 |
| 20260902083552 | 53 | 129 | 1.0 | 4.0 | 0.00 | 0.00 | 0.00 | 70 | 1016.8 |
| 20260902083101 | 53 | 98 | 2.0 | 7.0 | 0.00 | 0.00 | 0.00 | 70 | 1016.8 |
| 20260902082551 | 53 | 103 | 2.0 | 7.0 | 0.00 | 0.00 | 0.00 | 71 | 1016.7 |
| 20260902082051 | 53 | 135 | 1.0 | 9.0 | 0.00 | 0.00 | 0.00 | 71 | 1016.8 |
| 20260902081550 | 53 | 132 | 1.0 | 9.0 | 0.00 | 0.00 | 0.00 | 71 | 1016.8 |
| 20260902081051 | 53 | 138 | 1.0 | 8.0 | 0.00 | 0.00 | 0.00 | 71 | 1016.8 |
| 20260902080550 | 53 | 133 | 0.0 | 7.0 | 0.00 | 0.00 | 0.00 | 71 | 1016.8 |
| 20260902080054 | 53 | 117 | 1.0 | 8.0 | 0.00 | 0.00 | 0.00 | 71 | 1016.7 |
| 20260902075549 | 53 | 125 | 2.0 | 9.0 | 0.00 | 0.00 | 0.00 | 71 | 1016.7 |
| 20260902075048 | 53 | 138 | 3.0 | 9.0 | 0.00 | 0.00 | 0.00 | 72 | 1016.7 |
| 20260902074553 | 52 | 93 | 3.0 | 6.0 | 0.00 | 0.00 | 0.00 | 74 | 1016.7 |
| 20260902074047 | 52 | 94 | 1.0 | 3.0 | 0.00 | 0.00 | 0.00 | 74 | 1016.8 |
| 20260902073546 | 52 | 121 | 1.0 | 2.0 | 0.00 | 0.00 | 0.00 | 74 | 1016.8 |
| 20260902073046 | 52 | 121 | 0.0 | 3.0 | 0.00 | 0.00 | 0.00 | 74 | 1016.8 |
| 20260902072546 | 53 | 121 | 0.0 | 4.0 | 0.00 | 0.00 | 0.00 | 74 | 1016.7 |
| 20260902072046 | 52 | 108 | 1.0 | 6.0 | 0.00 | 0.00 | 0.00 | 75 | 1016.7 |
| 20260902071544 | 52 | 107 | 2.0 | 6.0 | 0.00 | 0.00 | 0.00 | 76 | 1016.7 |
| 20260902071046 | 52 | 99 | 2.0 | 4.0 | 0.00 | 0.00 | 0.00 | 76 | 1016.8 |
| 20260902070543 | 52 | 117 | 0.0 | 4.0 | 0.00 | 0.00 | 0.00 | 76 | 1016.8 |
| 20260902070042 | 52 | 157 | 0.0 | 5.0 | 0.00 | 0.00 | 0.00 | 76 | 1016.8 |
| 20260902065541 | 52 | 161 | 1.0 | 5.0 | 0.00 | 0.00 | 0.00 | 76 | 1016.7 |
| 20260902065040 | 52 | 162 | 1.0 | 4.0 | 0.00 | 0.00 | 0.00 | 76 | 1016.7 |
| 20260902064540 | 52 | 188 | 1.0 | 3.0 | 0.00 | 0.00 | 0.00 | 76 | 1016.7 |
| 20260902064040 | 53 | 246 | 0.0 | 3.0 | 0.00 | 0.00 | 0.00 | 75 | 1016.6 |
| 20260902063540 | 53 | 246 | 0.0 | 3.0 | 0.00 | 0.00 | 0.00 | 74 | 1016.8 |
| 20260902063053 | 53 | 246 | 0.0 | 0.0 | 0.00 | 0.00 | 0.00 | 74 | 1016.9 |
| 20260902062540 | 53 | 246 | 0.0 | 0.0 | 0.00 | 0.00 | 0.00 | 73 | 1016.8 |
| 20260902062039 | 53 | 246 | 0.0 | 1.0 | 0.00 | 0.00 | 0.00 | 73 | 1016.8 |
| 20260902061541 | 53 | 246 | 0.0 | 2.0 | 0.00 | 0.00 | 0.00 | 73 | 1016.7 |
| 20260902061040 | 53 | 246 | 0.0 | 2.0 | 0.00 | 0.00 | 0.00 | 73 | 1016.7 |
| 20260902060539 | 53 | 247 | 0.0 | 2.0 | 0.00 | 0.00 | 0.00 | 73 | 1016.9 |
| 20260902060039 | 53 | 247 | 0.0 | 3.0 | 0.00 | 0.00 | 0.00 | 73 | 1016.9 |
| 20260902055542 | 53 | 247 | 1.0 | 4.0 | 0.00 | 0.00 | 0.00 | 72 | 1016.8 |
| 20260902055038 | 54 | 242 | 2.0 | 6.0 | 0.00 | 0.00 | 0.00 | 72 | 1016.8 |
| 20260902054543 | 54 | 269 | 2.0 | 6.0 | 0.00 | 0.00 | 0.00 | 72 | 1016.8 |
| 20260902054037 | 54 | 270 | 3.0 | 8.0 | 0.00 | 0.00 | 0.00 | 71 | 1016.7 |
| 20260902053537 | 54 | 249 | 3.0 | 8.0 | 0.00 | 0.00 | 0.00 | 71 | 1016.8 |
| 20260902053037 | 55 | 223 | 4.0 | 7.0 | 0.00 | 0.00 | 0.00 | 69 | 1016.7 |
| 20260902052539 | 55 | 265 | 3.0 | 7.0 | 0.00 | 0.00 | 0.00 | 68 | 1016.7 |
| 20260902052036 | 55 | 242 | 3.0 | 7.0 | 0.00 | 0.00 | 0.00 | 67 | 1016.7 |
| 20260902051543 | 56 | 237 | 3.0 | 7.0 | 0.00 | 0.00 | 0.00 | 66 | 1016.7 |
| 20260902051038 | 56 | 245 | 3.0 | 6.0 | 0.00 | 0.00 | 0.00 | 64 | 1016.7 |
| 20260902050540 | 57 | 271 | 2.0 | 4.0 | 0.00 | 0.00 | 0.00 | 63 | 1016.7 |
| 20260902050055 | 57 | 259 | 2.0 | 4.0 | 0.00 | 0.00 | 0.00 | 63 | 1016.6 |
| 20260902045536 | 57 | 254 | 2.0 | 4.0 | 0.00 | 0.00 | 0.00 | 62 | 1016.7 |
| 20260902045036 | 57 | 188 | 2.0 | 4.0 | 0.00 | 0.00 | 0.00 | 62 | 1016.6 |
| 20260902044536 | 57 | 262 | 2.0 | 4.0 | 0.00 | 0.00 | 0.00 | 62 | 1016.7 |
| 20260902044035 | 57 | 256 | 1.0 | 4.0 | 0.00 | 0.00 | 0.00 | 61 | 1016.6 |
| 20260902043535 | 57 | 253 | 2.0 | 4.0 | 0.00 | 0.00 | 0.00 | 61 | 1016.7 |
| 20260902043043 | 58 | 257 | 2.0 | 6.0 | 0.00 | 0.00 | 0.00 | 60 | 1016.5 |
| 20260902042534 | 58 | 258 | 2.0 | 6.0 | 0.00 | 0.00 | 0.00 | 59 | 1016.5 |
| 20260902042034 | 58 | 269 | 2.0 | 6.0 | 0.00 | 0.00 | 0.00 | 58 | 1016.4 |
| 20260902041534 | 58 | 251 | 3.0 | 6.0 | 0.00 | 0.00 | 0.00 | 57 | 1016.5 |
| 20260902041036 | 58 | 269 | 3.0 | 6.0 | 0.00 | 0.00 | 0.00 | 56 | 1016.4 |
| 20260902040533 | 59 | 267 | 2.0 | 4.0 | 0.00 | 0.00 | 0.00 | 55 | 1016.1 |
| 20260902040035 | 59 | 271 | 2.0 | 4.0 | 0.00 | 0.00 | 0.00 | 54 | 1016.1 |
| 20260902035531 | 59 | 253 | 2.0 | 3.0 | 0.00 | 0.00 | 0.00 | 53 | 1016.0 |
| 20260902035030 | 59 | 271 | 2.0 | 6.0 | 0.00 | 0.00 | 0.00 | 52 | 1016.0 |
| 20260902034532 | 59 | 273 | 3.0 | 8.0 | 0.00 | 0.00 | 0.00 | 52 | 1015.8 |
| 20260902034029 | 60 | 273 | 4.0 | 8.0 | 0.00 | 0.00 | 0.00 | 51 | 1015.8 |
| 20260902033529 | 60 | 272 | 4.0 | 8.0 | 0.00 | 0.00 | 0.00 | 50 | 1015.7 |
| 20260902033030 | 60 | 279 | 3.0 | 6.0 | 0.00 | 0.00 | 0.00 | 50 | 1015.7 |
| 20260902032529 | 60 | 274 | 2.0 | 6.0 | 0.00 | 0.00 | 0.00 | 50 | 1015.7 |
| 20260902032028 | 60 | 270 | 2.0 | 6.0 | 0.00 | 0.00 | 0.00 | 50 | 1015.5 |
| 20260902031527 | 61 | 261 | 3.0 | 6.0 | 0.00 | 0.00 | 0.00 | 50 | 1015.3 |
| 20260902031031 | 61 | 261 | 1.0 | 4.0 | 0.00 | 0.00 | 0.00 | 50 | 1015.3 |
| 20260902030526 | 61 | 273 | 1.0 | 6.0 | 0.00 | 0.00 | 0.00 | 51 | 1015.2 |
| 20260902030025 | 61 | 263 | 2.0 | 6.0 | 0.00 | 0.00 | 0.00 | 50 | 1015.1 |
| 20260902025526 | 61 | 267 | 2.0 | 5.0 | 0.00 | 0.00 | 0.00 | 50 | 1015.1 |
| 20260902025026 | 62 | 271 | 2.0 | 5.0 | 0.00 | 0.00 | 0.00 | 50 | 1015.0 |
| 20260902024525 | 62 | 252 | 2.0 | 5.0 | 0.00 | 0.00 | 0.00 | 50 | 1014.9 |
| 20260902024024 | 62 | 263 | 2.0 | 7.0 | 0.00 | 0.00 | 0.00 | 50 | 1014.8 |
| 20260902023524 | 63 | 246 | 3.0 | 7.0 | 0.00 | 0.00 | 0.00 | 49 | 1014.9 |
| 20260902023024 | 63 | 235 | 1.0 | 6.0 | 0.00 | 0.00 | 0.00 | 49 | 1014.9 |
| 20260902022524 | 63 | 227 | 2.0 | 6.0 | 0.00 | 0.00 | 0.00 | 48 | 1014.8 |
| 20260902022024 | 64 | 267 | 2.0 | 6.0 | 0.00 | 0.00 | 0.00 | 48 | 1014.8 |
| 20260902021524 | 64 | 263 | 2.0 | 7.0 | 0.00 | 0.00 | 0.00 | 47 | 1014.7 |
| 20260902021024 | 65 | 274 | 1.0 | 5.0 | 0.00 | 0.00 | 0.00 | 47 | 1014.6 |
| 20260902020523 | 65 | 279 | 1.0 | 5.0 | 0.00 | 0.00 | 0.00 | 47 | 1014.5 |
| 20260902020024 | 65 | 279 | 1.0 | 5.0 | 0.00 | 0.00 | 0.00 | 46 | 1014.5 |
| 20260902015524 | 66 | 232 | 2.0 | 8.0 | 0.00 | 0.00 | 0.00 | 46 | 1014.5 |
| 20260902015024 | 66 | 236 | 2.0 | 8.0 | 0.00 | 0.00 | 0.00 | 45 | 1014.5 |
| 20260902014523 | 67 | 273 | 3.0 | 8.0 | 0.00 | 0.00 | 0.00 | 45 | 1014.5 |
| 20260902014022 | 67 | 270 | 3.0 | 9.0 | 0.00 | 0.00 | 0.00 | 44 | 1014.7 |
| 20260902013522 | 67 | 281 | 3.0 | 11.0 | 0.00 | 0.00 | 0.00 | 44 | 1014.6 |
| 20260902013022 | 68 | 276 | 4.0 | 9.0 | 0.00 | 0.00 | 0.00 | 44 | 1014.6 |
| 20260902012522 | 68 | 273 | 2.0 | 9.0 | 0.00 | 0.00 | 0.00 | 43 | 1014.6 |
| 20260902012021 | 68 | 269 | 4.0 | 8.0 | 0.00 | 0.00 | 0.00 | 43 | 1014.6 |
| 20260902011528 | 68 | 283 | 1.0 | 6.0 | 0.00 | 0.00 | 0.00 | 43 | 1014.6 |
| 20260902011024 | 68 | 227 | 2.0 | 11.0 | 0.00 | 0.00 | 0.00 | 43 | 1014.6 |
| 20260902010522 | 69 | 261 | 5.0 | 14.0 | 0.00 | 0.00 | 0.00 | 43 | 1014.6 |
| 20260902010022 | 69 | 277 | 3.0 | 14.0 | 0.00 | 0.00 | 0.00 | 43 | 1014.5 |
| 20260902005521 | 69 | 288 | 5.0 | 12.0 | 0.00 | 0.00 | 0.00 | 43 | 1014.5 |
| 20260902005020 | 69 | 271 | 7.0 | 12.0 | 0.00 | 0.00 | 0.00 | 42 | 1014.5 |
| 20260902004520 | 69 | 239 | 2.0 | 10.0 | 0.00 | 0.00 | 0.00 | 42 | 1014.5 |
| 20260902004019 | 69 | 256 | 2.0 | 7.0 | 0.00 | 0.00 | 0.00 | 43 | 1014.4 |
| 20260902003520 | 68 | 273 | 3.0 | 7.0 | 0.00 | 0.00 | 0.00 | 43 | 1014.4 |
| 20260902003026 | 68 | 275 | 2.0 | 9.0 | 0.00 | 0.00 | 0.00 | 43 | 1014.4 |
| 20260902002519 | 69 | 225 | 2.0 | 8.0 | 0.00 | 0.00 | 0.00 | 42 | 1014.4 |
| 20260902002022 | 69 | 264 | 3.0 | 11.0 | 0.00 | 0.00 | 0.00 | 42 | 1014.4 |
| 20260902001518 | 69 | 281 | 2.0 | 13.0 | 0.00 | 0.00 | 0.00 | 42 | 1014.3 |
| 20260902001019 | 70 | 263 | 3.0 | 13.0 | 0.00 | 0.00 | 0.00 | 42 | 1014.4 |
| 20260902000521 | 70 | 275 | 6.0 | 12.0 | 0.00 | 0.00 | 0.00 | 41 | 1014.3 |
| 20260902000018 | 71 | 280 | 7.0 | 13.0 | 0.00 | 0.00 | 0.00 | 41 | 1014.3 |
| 20260901235517 | 71 | 275 | 7.0 | 13.0 | 0.00 | 0.00 | 0.00 | 41 | 1014.4 |
| 20260901235018 | 71 | 283 | 6.0 | 11.0 | 0.00 | 0.00 | 0.00 | 40 | 1014.4 |
| 20260901234516 | 72 | 272 | 5.0 | 12.0 | 0.00 | 0.00 | 0.00 | 39 | 1014.4 |
| 20260901234016 | 73 | 285 | 4.0 | 14.0 | 0.00 | 0.00 | 0.00 | 38 | 1014.5 |
| 20260901233516 | 73 | 281 | 4.0 | 14.0 | 0.00 | 0.00 | 0.00 | 39 | 1014.4 |
| 20260901233015 | 73 | 284 | 3.0 | 10.0 | 0.00 | 0.00 | 0.00 | 39 | 1014.5 |
| 20260901232516 | 73 | 240 | 2.0 | 8.0 | 0.00 | 0.00 | 0.00 | 39 | 1014.5 |
| 20260901232015 | 73 | 207 | 4.0 | 12.0 | 0.00 | 0.00 | 0.00 | 39 | 1014.6 |
| 20260901231522 | 74 | 178 | 6.0 | 12.0 | 0.00 | 0.00 | 0.00 | 38 | 1014.6 |
| 20260901231014 | 73 | 259 | 3.0 | 9.0 | 0.00 | 0.00 | 0.00 | 39 | 1014.5 |
| 20260901230514 | 73 | 238 | 4.0 | 9.0 | 0.00 | 0.00 | 0.00 | 39 | 1014.6 |
| 20260901230116 | 74 | 223 | 2.0 | 9.0 | 0.00 | 0.00 | 0.00 | 39 | 1014.6 |
| 20260901225513 | 74 | 246 | 3.0 | 11.0 | 0.00 | 0.00 | 0.00 | 38 | 1014.6 |
| 20260901225013 | 74 | 219 | 3.0 | 11.0 | 0.00 | 0.00 | 0.00 | 38 | 1014.5 |
| 20260901224512 | 73 | 277 | 2.0 | 9.0 | 0.00 | 0.00 | 0.00 | 39 | 1014.5 |
| 20260901224012 | 73 | 215 | 4.0 | 9.0 | 0.00 | 0.00 | 0.00 | 38 | 1014.5 |
| 20260901223512 | 73 | 213 | 5.0 | 9.0 | 0.00 | 0.00 | 0.00 | 39 | 1014.4 |
| 20260901223012 | 74 | 302 | 2.0 | 10.0 | 0.00 | 0.00 | 0.00 | 39 | 1014.5 |
| 20260901222511 | 73 | 176 | 5.0 | 10.0 | 0.00 | 0.00 | 0.00 | 38 | 1014.6 |
| 20260901222014 | 75 | 202 | 6.0 | 10.0 | 0.00 | 0.00 | 0.00 | 37 | 1014.5 |
| 20260901221510 | 74 | 280 | 4.0 | 10.0 | 0.00 | 0.00 | 0.00 | 38 | 1014.5 |
| 20260901221013 | 74 | 241 | 1.0 | 11.0 | 0.00 | 0.00 | 0.00 | 38 | 1014.7 |
| 20260901220511 | 74 | 224 | 5.0 | 12.0 | 0.00 | 0.00 | 0.00 | 38 | 1014.6 |
| 20260901220009 | 74 | 229 | 4.0 | 11.0 | 0.00 | 0.00 | 0.00 | 38 | 1014.6 |
| 20260901215510 | 74 | 204 | 4.0 | 12.0 | 0.00 | 0.00 | 0.00 | 38 | 1014.6 |
| 20260901215012 | 74 | 220 | 5.0 | 11.0 | 0.00 | 0.00 | 0.00 | 38 | 1014.6 |
| 20260901214508 | 73 | 188 | 3.0 | 15.0 | 0.00 | 0.00 | 0.00 | 39 | 1014.6 |
| 20260901214008 | 73 | 187 | 8.0 | 15.0 | 0.00 | 0.00 | 0.00 | 38 | 1014.5 |
| 20260901213510 | 73 | 196 | 4.0 | 12.0 | 0.00 | 0.00 | 0.00 | 39 | 1014.6 |
| 20260901213007 | 74 | 233 | 4.0 | 14.0 | 0.00 | 0.00 | 0.00 | 37 | 1014.5 |
| 20260901212507 | 75 | 215 | 6.0 | 14.0 | 0.00 | 0.00 | 0.00 | 36 | 1014.7 |
| 20260901212007 | 75 | 268 | 4.0 | 14.0 | 0.00 | 0.00 | 0.00 | 36 | 1014.6 |
| 20260901211507 | 74 | 174 | 5.0 | 14.0 | 0.00 | 0.00 | 0.00 | 35 | 1014.6 |
| 20260901211007 | 73 | 227 | 6.0 | 16.0 | 0.00 | 0.00 | 0.00 | 37 | 1014.5 |
| 20260901210507 | 73 | 188 | 8.0 | 16.0 | 0.00 | 0.00 | 0.00 | 35 | 1014.5 |
| 20260901210006 | 73 | 223 | 4.0 | 11.0 | 0.00 | 0.00 | 0.00 | 35 | 1014.4 |
| 20260901205506 | 73 | 184 | 5.0 | 17.0 | 0.00 | 0.00 | 0.00 | 35 | 1014.4 |
| 20260901205005 | 74 | 232 | 8.0 | 17.0 | 0.00 | 0.00 | 0.00 | 34 | 1014.4 |
| 20260901204504 | 74 | 238 | 6.0 | 17.0 | 0.00 | 0.00 | 0.00 | 34 | 1014.3 |
| 20260901204004 | 73 | 216 | 9.0 | 17.0 | 0.00 | 0.00 | 0.00 | 35 | 1014.4 |
| 20260901203503 | 73 | 198 | 8.0 | 18.0 | 0.00 | 0.00 | 0.00 | 34 | 1014.4 |
| 20260901203004 | 73 | 250 | 10.0 | 16.0 | 0.00 | 0.00 | 0.00 | 34 | 1014.4 |
| 20260901202504 | 74 | 188 | 9.0 | 17.0 | 0.00 | 0.00 | 0.00 | 33 | 1014.4 |
| 20260901202002 | 74 | 205 | 7.0 | 17.0 | 0.00 | 0.00 | 0.00 | 33 | 1014.4 |
| 20260901201502 | 73 | 240 | 8.0 | 17.0 | 0.00 | 0.00 | 0.00 | 34 | 1014.5 |
| 20260901201005 | 74 | 167 | 9.0 | 17.0 | 0.00 | 0.00 | 0.00 | 33 | 1014.6 |
| 20260901200502 | 74 | 254 | 5.0 | 14.0 | 0.00 | 0.00 | 0.00 | 33 | 1014.7 |
| 20260901200008 | 74 | 221 | 6.0 | 14.0 | 0.00 | 0.00 | 0.00 | 32 | 1014.7 |
| 20260901195502 | 75 | 193 | 7.0 | 14.0 | 0.00 | 0.00 | 0.00 | 32 | 1014.8 |
| 20260901195000 | 75 | 249 | 2.0 | 7.0 | 0.00 | 0.00 | 0.00 | 31 | 1014.8 |
| 20260901194602 | 75 | 100 | 2.0 | 13.0 | 0.00 | 0.00 | 0.00 | 36 | 1014.9 |
| 20260901194100 | 74 | 57 | 1.0 | 13.0 | 0.00 | 0.00 | 0.00 | 36 | 1014.9 |
| 20260901193600 | 75 | 183 | 3.0 | 10.0 | 0.00 | 0.00 | 0.00 | 32 | 1014.8 |
| 20260901193059 | 75 | 184 | 3.0 | 8.0 | 0.00 | 0.00 | 0.00 | 32 | 1014.8 |
| 20260901192558 | 74 | 311 | 4.0 | 11.0 | 0.00 | 0.00 | 0.00 | 33 | 1014.9 |
| 20260901192057 | 74 | 241 | 4.0 | 11.0 | 0.00 | 0.00 | 0.00 | 32 | 1014.9 |
| 20260901191611 | 74 | 260 | 1.0 | 7.0 | 0.00 | 0.00 | 0.00 | 34 | 1015.0 |
| 20260901191054 | 73 | 302 | 2.0 | 13.0 | 0.00 | 0.00 | 0.00 | 38 | 1015.0 |
| 20260901190553 | 72 | 296 | 4.0 | 8.0 | 0.00 | 0.00 | 0.00 | 45 | 1015.0 |
| 20260901190054 | 72 | 5 | 0.0 | 8.0 | 0.00 | 0.00 | 0.00 | 45 | 1015.0 |
| 20260901185550 | 71 | 296 | 2.0 | 9.0 | 0.00 | 0.00 | 0.00 | 47 | 1015.1 |
| 20260901185049 | 71 | 292 | 1.0 | 8.0 | 0.00 | 0.00 | 0.00 | 47 | 1015.0 |
| 20260901184609 | 70 | 308 | 2.0 | 8.0 | 0.00 | 0.00 | 0.00 | 49 | 1015.0 |
| 20260901184047 | 69 | 298 | 1.0 | 7.0 | 0.00 | 0.00 | 0.00 | 49 | 1015.0 |
| 20260901183549 | 69 | 256 | 1.0 | 8.0 | 0.00 | 0.00 | 0.00 | 49 | 1015.1 |
| 20260901183051 | 69 | 298 | 1.0 | 6.0 | 0.00 | 0.00 | 0.00 | 49 | 1015.1 |
| 20260901182543 | 68 | 281 | 2.0 | 8.0 | 0.00 | 0.00 | 0.00 | 50 | 1015.0 |